Location: Unspecified
(33.6682°S, 0.0000°E)
Time: 17:35:10
(UTC+00:00)

S-56A Canister/Altair - Pass Details

Date: 27 June 2019
Orbit: 632 x 2500 km, 38.9° (Epoch: 17 July)

Event Time Altitude Azimuth Distance (km) Brightness Sun altitude
Exits shadow 06:12:03 13° 250° (WSW) 3,555 10.2 -10.9°
Maximum altitude 06:21:42 78° 164° (SSE) 2,065 9.7 -9.0°
Drops below altitude 10° 06:36:14 10° 76° (ENE) 5,090 13.4 -6.3°
Sets 06:40:26 0° 75° (ENE) 6,166 14.5 -5.5°
